Read MPEC 1999-V32
Read MPEC 1999-V34
M.P.E.C. 1999-V33 Issued 1999 Nov. 11, 19:15 UT
The Minor Planet Electronic Circulars contain information on unusual
minor planets and routine data on comets. They are published
on behalf of Commission 20 of the International Astronomical Union by the
Minor Planet Center, Smithsonian Astrophysical Observatory,
Cambridge, MA 02138, U.S.A.
BMARSDEN@CFA.HARVARD.EDU or GWILLIAMS@CFA.HARVARD.EDU
URL http://cfa-www.harvard.edu/iau/mpc.html ISSN 1523-6714
1999 VM11
Observations:
J99V11M* C1999 11 06.16412 23 53 14.63 +04 07 04.1 19.0 704
J99V11M C1999 11 06.18042 23 53 16.58 +04 06 00.1 20.0 704
J99V11M C1999 11 06.19675 23 53 18.43 +04 04 55.2 20.4 704
J99V11M C1999 11 06.21309 23 53 20.41 +04 03 52.3 20.0 704
J99V11M C1999 11 06.22946 23 53 22.36 +04 02 47.9 19.8 704
J99V11M C1999 11 07.12007 23 55 21.30 +03 04 39.8 711
J99V11M C1999 11 07.12397 23 55 21.74 +03 04 24.6 711
J99V11M C1999 11 07.12777 23 55 22.22 +03 04 09.9 711
J99V11M C1999 11 08.12883 23 57 38.16 +01 59 30.4 18.5 R 853
J99V11M C1999 11 08.13306 23 57 38.67 +01 59 14.2 18.7 R 853
J99V11M C1999 11 08.13818 23 57 39.32 +01 58 53.7 18.4 R 853
J99V11M C1999 11 08.14012 23 57 39.58 +01 58 45.9 18.9 R 853
J99V11M C1999 11 09.14353 23 59 59.17 +00 54 47.1 19.1 R 853
J99V11M C1999 11 09.17508 00 00 03.15 +00 52 48.9 19.4 R 853
J99V11M C1999 11 09.17770 00 00 03.48 +00 52 38.8 19.7 R 853
J99V11M C1999 11 09.17892 00 00 03.68 +00 52 33.9 19.4 R 853
J99V11M C1999 11 10.08089 00 02 13.36 -00 04 05.6 18.8 R 853
J99V11M C1999 11 10.08184 00 02 13.45 -00 04 09.0 19.3 R 853
J99V11M C1999 11 10.08388 00 02 13.72 -00 04 16.7 19.1 R 853
J99V11M C1999 11 11.17756 00 04 52.09 -01 11 52.9 19.9 R 853
J99V11M C1999 11 11.17992 00 04 52.39 -01 12 01.0 20.1 R 853
J99V11M FC1999 11 11.18656 00 04 53.28 -01 12 26.1 20.1 R 853
Observer details:
704 Lincoln Laboratory ETS, New Mexico. Observers M. Blythe, F. Shelly,
M. Bezpalko, M. Elowitz, R. Huber. Measurers J. Stuart, H. Viggh,
R. Sayer. 1.0-m f/2.15 reflector + CCD.
711 McDonald Observatory. Observer P. J. Shelus. 0.76-m reflector + CCD.
853 Biosphere 2 Observatory. Observers G. J. Garradd, S. Airieau. 0.5-m f/8.1
reflector + CCD.
Orbital elements:
1999 VM11
Epoch 1999 Oct. 29.0 TT = JDT 2451480.5 Williams
M 339.84315 (2000.0) P Q
n 0.48885398 Peri. 206.15887 +0.44592658 -0.87650209
a 1.5959402 Node 218.12472 +0.86408490 +0.47441249
e 0.2793501 Incl. 17.08375 +0.23346687 -0.08171219
P 2.02 H 20.8 G 0.15
From 22 observations 1999 Nov. 6-11.
Ephemeris:
1999 VM11 a,e,i = 1.60, 0.28, 17 q = 1.1501
Date TT R. A. (2000) Decl. Delta r Elong. Phase V
1999 11 08 23 57.33 +02 08.1 0.248 1.180 135.1 36.4 19.6
1999 11 13 00 09.43 -03 01.1 0.254 1.171 130.7 39.8 19.7
1999 11 18 00 22.77 -07 38.9 0.263 1.164 126.4 43.1 19.9
1999 11 23 00 37.07 -11 38.8 0.275 1.158 122.4 46.1 20.1
1999 11 28 00 52.05 -14 58.5 0.289 1.154 118.8 48.5 20.2
1999 12 03 01 07.49 -17 38.5 0.306 1.151 115.6 50.6 20.4
1999 12 08 01 23.20 -19 41.0 0.324 1.150 112.9 52.1 20.6
1999 12 13 01 39.04 -21 09.6 0.343 1.151 110.6 53.2 20.7
1999 12 18 01 54.88 -22 08.4 0.363 1.153 108.7 54.0 20.9
1999 12 23 02 10.63 -22 41.2 0.384 1.156 107.1 54.4 21.0
1999 12 28 02 26.19 -22 51.6 0.405 1.161 105.8 54.6 21.2
2000 01 02 02 41.56 -22 42.4 0.427 1.167 104.8 54.5 21.3
2000 01 07 02 56.74 -22 16.3 0.449 1.175 104.0 54.3 21.4
2000 01 12 03 11.74 -21 35.8 0.472 1.185 103.3 53.9 21.5
2000 01 17 03 26.58 -20 43.1 0.495 1.195 102.8 53.4 21.6
2000 01 22 03 41.28 -19 40.5 0.518 1.207 102.4 52.8 21.7
2000 01 27 03 55.83 -18 29.5 0.543 1.220 102.1 52.1 21.8
2000 02 01 04 10.28 -17 11.8 0.568 1.233 101.8 51.4 21.9
2000 02 06 04 24.65 -15 48.9 0.594 1.248 101.5 50.7 22.0
Gareth V. Williams (C) Copyright 1999 MPC M.P.E.C. 1999-V33
Read MPEC 1999-V32
Read MPEC 1999-V34
Our Web policy. Index to the CBAT/MPC/ICQ pages.